TAM3113 SBCY-SBBR

Flight info

Callsign TAM3113
Flight time 1h 18m
Altitude 37000
Route TORAB UZ8 MABMA DCT UBSUS
Aircraft A321/M-SDE2FGHIM1RWXYZ/LB1

Departure

Time 2026-04-26 12:51
Airport Várzea Grande–Marechal Rondon International Airport (SBCY)

Arrival

Time 2026-04-26 14:09
Airport Presidente Juscelino Kubitschek International Airport (SBBR)
Time Latitude Longitude Altitude Speed Heading
2026-04-26 12:19 -15.65183 -56.11909 605 ft 0 kts 243°
2026-04-26 12:42 -15.65173 -56.11892 616 ft 3 kts 225°
2026-04-26 12:42 -15.65159 -56.11881 605 ft 3 kts 189°
2026-04-26 12:42 -15.65140 -56.11882 605 ft 3 kts 155°
2026-04-26 12:42 -15.65131 -56.11887 605 ft 1 kts 152°
2026-04-26 12:45 -15.65140 -56.11882 616 ft 5 kts 152°
2026-04-26 12:45 -15.65220 -56.11839 605 ft 16 kts 152°
2026-04-26 12:45 -15.65322 -56.11786 614 ft 17 kts 153°
2026-04-26 12:45 -15.65431 -56.11728 617 ft 18 kts 153°
2026-04-26 12:46 -15.65549 -56.11665 608 ft 20 kts 153°
2026-04-26 12:46 -15.65675 -56.11598 609 ft 21 kts 153°
2026-04-26 12:46 -15.65807 -56.11527 612 ft 22 kts 153°
2026-04-26 12:46 -15.65946 -56.11453 611 ft 23 kts 153°
2026-04-26 12:47 -15.66088 -56.11378 604 ft 19 kts 154°
2026-04-26 12:47 -15.66181 -56.11329 616 ft 13 kts 152°
2026-04-26 12:47 -15.66246 -56.11285 617 ft 0 kts 116°
2026-04-26 12:49 -15.66247 -56.11282 604 ft 2 kts 116°
2026-04-26 12:49 -15.66249 -56.11257 610 ft 7 kts 80°
2026-04-26 12:49 -15.66227 -56.11212 601 ft 7 kts 60°
2026-04-26 12:50 -15.66196 -56.11192 600 ft 4 kts 341°
2026-04-26 12:50 -15.66191 -56.11195 600 ft 0 kts 337°
2026-04-26 12:50 -15.66146 -56.11216 600 ft 35 kts 333°
2026-04-26 12:50 -15.65686 -56.11461 602 ft 111 kts 333°
2026-04-26 12:51 -15.64821 -56.11918 705 ft 157 kts 333°
2026-04-26 12:51 -15.63887 -56.12407 1386 ft 151 kts 333°
2026-04-26 12:51 -15.62942 -56.12905 1854 ft 158 kts 333°
2026-04-26 12:51 -15.61900 -56.13462 2085 ft 180 kts 333°
2026-04-26 12:52 -15.60680 -56.13993 2323 ft 202 kts 351°
2026-04-26 12:52 -15.59244 -56.13753 2499 ft 225 kts 29°
2026-04-26 12:52 -15.58187 -56.12473 2673 ft 252 kts 70°
2026-04-26 12:52 -15.58087 -56.10619 3175 ft 268 kts 100°
2026-04-26 12:53 -15.58660 -56.08763 3923 ft 272 kts 111°
2026-04-26 12:53 -15.59453 -56.07002 4715 ft 275 kts 114°
2026-04-26 12:53 -15.60318 -56.05225 5514 ft 276 kts 114°
2026-04-26 12:53 -15.61171 -56.03439 6328 ft 277 kts 113°
2026-04-26 12:54 -15.61998 -56.01620 7081 ft 280 kts 112°
2026-04-26 12:54 -15.62802 -55.99763 7793 ft 284 kts 112°
2026-04-26 12:54 -15.63594 -55.97868 8468 ft 289 kts 112°
2026-04-26 12:54 -15.64387 -55.95934 9182 ft 294 kts 111°
2026-04-26 12:55 -15.65176 -55.93987 9847 ft 299 kts 112°
2026-04-26 12:55 -15.65989 -55.91969 10303 ft 312 kts 112°
2026-04-26 12:55 -15.66851 -55.89817 10478 ft 334 kts 112°
2026-04-26 12:55 -15.67757 -55.87552 10875 ft 344 kts 112°
2026-04-26 12:56 -15.68687 -55.85239 11448 ft 350 kts 112°
2026-04-26 12:56 -15.69632 -55.82895 12047 ft 354 kts 112°
2026-04-26 12:56 -15.70589 -55.80526 12642 ft 358 kts 113°
2026-04-26 12:56 -15.71559 -55.78128 13234 ft 363 kts 113°
2026-04-26 12:57 -15.72526 -55.75732 13815 ft 366 kts 113°
2026-04-26 12:57 -15.73512 -55.73281 14323 ft 370 kts 113°
2026-04-26 12:57 -15.74507 -55.70804 14871 ft 373 kts 113°
2026-04-26 12:58 -15.76516 -55.65802 15947 ft 378 kts 112°
2026-04-26 12:58 -15.77530 -55.63278 16491 ft 380 kts 112°
2026-04-26 12:58 -15.78552 -55.60737 17009 ft 383 kts 112°
2026-04-26 12:58 -15.79582 -55.58177 17503 ft 386 kts 112°
2026-04-26 12:59 -15.80609 -55.55630 17918 ft 390 kts 112°
2026-04-26 12:59 -15.81662 -55.53015 18376 ft 393 kts 112°
2026-04-26 12:59 -15.82717 -55.50389 18797 ft 396 kts 112°
2026-04-26 12:59 -15.83775 -55.47742 19212 ft 398 kts 111°
2026-04-26 13:00 -15.84837 -55.45074 19655 ft 400 kts 111°
2026-04-26 13:00 -15.85906 -55.42395 20086 ft 402 kts 111°
2026-04-26 13:00 -15.86982 -55.39707 20510 ft 404 kts 111°
2026-04-26 13:00 -15.88061 -55.37008 20915 ft 406 kts 111°
2026-04-26 13:01 -15.89150 -55.34290 21315 ft 408 kts 111°
2026-04-26 13:01 -15.90230 -55.31599 21710 ft 410 kts 111°
2026-04-26 13:01 -15.91331 -55.28854 22101 ft 413 kts 111°
2026-04-26 13:01 -15.92436 -55.26097 22503 ft 415 kts 111°
2026-04-26 13:02 -15.93547 -55.23322 22889 ft 417 kts 111°
2026-04-26 13:02 -15.94661 -55.20533 23261 ft 419 kts 111°
2026-04-26 13:02 -15.95777 -55.17733 23631 ft 421 kts 111°
2026-04-26 13:02 -15.96899 -55.14912 23950 ft 423 kts 111°
2026-04-26 13:03 -15.97987 -55.12061 24275 ft 425 kts 109°
2026-04-26 13:03 -15.98965 -55.09202 24599 ft 427 kts 107°
2026-04-26 13:03 -15.99893 -55.06266 24925 ft 428 kts 106°
2026-04-26 13:03 -16.00791 -55.03314 25252 ft 430 kts 105°
2026-04-26 13:04 -16.01693 -55.00338 25573 ft 433 kts 105°
2026-04-26 13:04 -16.02614 -54.97351 25910 ft 435 kts 106°
2026-04-26 13:04 -16.03556 -54.94360 26218 ft 437 kts 106°
2026-04-26 13:04 -16.04517 -54.91354 26545 ft 439 kts 106°
2026-04-26 13:05 -16.05491 -54.88336 26863 ft 441 kts 107°
2026-04-26 13:05 -16.06472 -54.85308 27187 ft 443 kts 107°
2026-04-26 13:05 -16.07444 -54.82301 27503 ft 445 kts 107°
2026-04-26 13:05 -16.08431 -54.79243 27816 ft 447 kts 106°
2026-04-26 13:06 -16.09418 -54.76169 28132 ft 450 kts 106°
2026-04-26 13:06 -16.10409 -54.73076 28454 ft 452 kts 106°
2026-04-26 13:06 -16.11402 -54.69968 28751 ft 454 kts 106°
2026-04-26 13:06 -16.12397 -54.66850 29061 ft 456 kts 106°
2026-04-26 13:07 -16.13394 -54.63712 29365 ft 458 kts 106°
2026-04-26 13:07 -16.14395 -54.60562 29681 ft 460 kts 106°
2026-04-26 13:07 -16.15386 -54.57434 29992 ft 462 kts 106°
2026-04-26 13:07 -16.16392 -54.54255 30261 ft 464 kts 106°
2026-04-26 13:08 -16.17406 -54.51060 30509 ft 466 kts 106°
2026-04-26 13:08 -16.18428 -54.47855 30752 ft 467 kts 106°
2026-04-26 13:08 -16.19457 -54.44644 30993 ft 469 kts 106°
2026-04-26 13:08 -16.20489 -54.41419 31225 ft 470 kts 106°
2026-04-26 13:09 -16.21520 -54.38179 31448 ft 472 kts 106°
2026-04-26 13:09 -16.22550 -54.34933 31665 ft 473 kts 106°
2026-04-26 13:09 -16.23648 -54.31706 31963 ft 473 kts 109°
2026-04-26 13:09 -16.24832 -54.28559 32275 ft 473 kts 110°
2026-04-26 13:10 -16.26099 -54.25407 32591 ft 472 kts 111°
2026-04-26 13:10 -16.27392 -54.22265 32894 ft 472 kts 111°
2026-04-26 13:10 -16.28678 -54.19130 33185 ft 471 kts 111°
2026-04-26 13:10 -16.29946 -54.15984 33471 ft 471 kts 110°
2026-04-26 13:11 -16.31191 -54.12835 33766 ft 470 kts 110°
2026-04-26 13:11 -16.32421 -54.09680 34064 ft 470 kts 110°
2026-04-26 13:11 -16.33639 -54.06529 34323 ft 469 kts 110°
2026-04-26 13:11 -16.34854 -54.03374 34582 ft 469 kts 110°
2026-04-26 13:12 -16.36055 -54.00264 34820 ft 469 kts 110°
2026-04-26 13:12 -16.37275 -53.97121 35063 ft 468 kts 110°
2026-04-26 13:12 -16.38496 -53.93980 35311 ft 468 kts 110°
2026-04-26 13:12 -16.39721 -53.90836 35551 ft 468 kts 111°
2026-04-26 13:13 -16.40948 -53.87694 35792 ft 468 kts 111°
2026-04-26 13:13 -16.42170 -53.84555 36037 ft 468 kts 111°
2026-04-26 13:13 -16.43391 -53.81413 36268 ft 468 kts 111°
2026-04-26 13:13 -16.44611 -53.78271 36490 ft 468 kts 111°
2026-04-26 13:14 -16.45812 -53.75176 36702 ft 467 kts 111°
2026-04-26 13:14 -16.47030 -53.72036 36921 ft 467 kts 111°
2026-04-26 13:14 -16.48247 -53.68898 37025 ft 467 kts 111°
2026-04-26 13:14 -16.49465 -53.65766 37040 ft 466 kts 111°
2026-04-26 13:15 -16.51889 -53.59510 37040 ft 465 kts 111°
2026-04-26 13:15 -16.53900 -53.54310 37043 ft 465 kts 111°
2026-04-26 13:16 -16.56704 -53.47046 37043 ft 465 kts 111°
2026-04-26 13:16 -16.59115 -53.40792 37047 ft 465 kts 111°
2026-04-26 13:17 -16.62732 -53.31395 37052 ft 466 kts 111°
2026-04-26 13:18 -16.66351 -53.21982 37059 ft 466 kts 111°
2026-04-26 13:19 -16.69956 -53.12601 37061 ft 467 kts 110°
2026-04-26 13:19 -16.71360 -53.06046 37060 ft 464 kts 95°
2026-04-26 13:20 -16.72055 -52.99357 37059 ft 464 kts 95°
2026-04-26 13:20 -16.72765 -52.92709 37060 ft 464 kts 95°
2026-04-26 13:21 -16.73481 -52.86012 37060 ft 464 kts 95°
2026-04-26 13:21 -16.74183 -52.79327 37060 ft 464 kts 95°
2026-04-26 13:22 -16.74885 -52.72639 37060 ft 464 kts 95°
2026-04-26 13:22 -16.75590 -52.66002 37062 ft 463 kts 95°
2026-04-26 13:23 -16.76292 -52.59319 37062 ft 463 kts 95°
2026-04-26 13:23 -16.76988 -52.52647 37062 ft 462 kts 95°
2026-04-26 13:24 -16.77675 -52.45976 37065 ft 462 kts 95°
2026-04-26 13:24 -16.78364 -52.39347 37064 ft 463 kts 95°
2026-04-26 13:25 -16.79054 -52.32672 37065 ft 463 kts 95°
2026-04-26 13:25 -16.79747 -52.26007 37063 ft 462 kts 95°
2026-04-26 13:26 -16.80433 -52.19350 37059 ft 461 kts 95°
2026-04-26 13:26 -16.81111 -52.12740 37062 ft 461 kts 95°
2026-04-26 13:27 -16.81787 -52.06087 37061 ft 461 kts 95°
2026-04-26 13:27 -16.82465 -51.99428 37065 ft 461 kts 95°
2026-04-26 13:28 -16.83141 -51.92772 37068 ft 461 kts 95°
2026-04-26 13:28 -16.83804 -51.86164 37068 ft 461 kts 94°
2026-04-26 13:29 -16.84462 -51.79517 37067 ft 460 kts 95°
2026-04-26 13:29 -16.85134 -51.72878 37070 ft 460 kts 95°
2026-04-26 13:30 -16.85806 -51.66244 37069 ft 460 kts 95°
2026-04-26 13:30 -16.86469 -51.59654 37075 ft 459 kts 94°
2026-04-26 13:31 -16.87121 -51.53014 37074 ft 460 kts 94°
2026-04-26 13:31 -16.87773 -51.46383 37074 ft 459 kts 94°
2026-04-26 13:32 -16.88435 -51.39750 37070 ft 459 kts 94°
2026-04-26 13:32 -16.89087 -51.33167 37067 ft 459 kts 94°
2026-04-26 13:33 -16.89738 -51.26544 37069 ft 458 kts 94°
2026-04-26 13:33 -16.90378 -51.19925 37068 ft 458 kts 94°
2026-04-26 13:34 -16.91018 -51.13313 37066 ft 458 kts 94°
2026-04-26 13:34 -16.91668 -51.06698 37066 ft 457 kts 94°
2026-04-26 13:35 -16.92312 -51.00134 37064 ft 458 kts 94°
2026-04-26 13:35 -16.92951 -50.93525 37068 ft 458 kts 94°
2026-04-26 13:36 -16.93580 -50.86921 37066 ft 457 kts 94°
2026-04-26 13:36 -16.94206 -50.80315 37067 ft 456 kts 94°
2026-04-26 13:37 -16.94828 -50.73762 37055 ft 457 kts 94°
2026-04-26 13:37 -16.95457 -50.67160 37052 ft 457 kts 94°
2026-04-26 13:38 -16.96082 -50.60554 37053 ft 457 kts 94°
2026-04-26 13:38 -16.96714 -50.53947 37058 ft 457 kts 94°
2026-04-26 13:39 -16.97335 -50.47387 37057 ft 457 kts 94°
2026-04-26 13:39 -16.97956 -50.40769 37054 ft 458 kts 94°
2026-04-26 13:40 -16.98486 -50.34157 37061 ft 455 kts 85°
2026-04-26 13:40 -16.98026 -50.30913 37059 ft 450 kts 71°
2026-04-26 13:40 -16.97100 -50.27794 37057 ft 449 kts 70°
2026-04-26 13:41 -16.95205 -50.21618 37054 ft 450 kts 70°
2026-04-26 13:41 -16.93285 -50.15402 37057 ft 450 kts 70°
2026-04-26 13:42 -16.91368 -50.09180 37061 ft 450 kts 70°
2026-04-26 13:42 -16.89455 -50.02961 37061 ft 449 kts 70°
2026-04-26 13:43 -16.87562 -49.96793 37061 ft 449 kts 70°
2026-04-26 13:43 -16.85653 -49.90583 37062 ft 449 kts 70°
2026-04-26 13:43 -16.84694 -49.87476 36891 ft 449 kts 70°
2026-04-26 13:44 -16.83738 -49.84382 36635 ft 448 kts 70°
2026-04-26 13:44 -16.82780 -49.81286 36388 ft 448 kts 70°
2026-04-26 13:44 -16.81826 -49.78195 36067 ft 447 kts 70°
2026-04-26 13:44 -16.80876 -49.75115 35505 ft 446 kts 70°
2026-04-26 13:45 -16.79939 -49.72086 35026 ft 443 kts 70°
2026-04-26 13:45 -16.78993 -49.69038 34546 ft 441 kts 70°
2026-04-26 13:45 -16.78052 -49.66003 34070 ft 438 kts 70°
2026-04-26 13:45 -16.77116 -49.62985 33546 ft 435 kts 70°
2026-04-26 13:46 -16.76191 -49.59995 33075 ft 431 kts 70°
2026-04-26 13:46 -16.75275 -49.57029 32596 ft 427 kts 70°
2026-04-26 13:46 -16.74367 -49.54094 32128 ft 424 kts 70°
2026-04-26 13:46 -16.73463 -49.51180 31663 ft 420 kts 70°
2026-04-26 13:47 -16.72567 -49.48294 31216 ft 417 kts 71°
2026-04-26 13:47 -16.71689 -49.45470 30766 ft 413 kts 71°
2026-04-26 13:47 -16.70804 -49.42628 30323 ft 410 kts 71°
2026-04-26 13:47 -16.69925 -49.39807 29836 ft 407 kts 71°
2026-04-26 13:48 -16.69056 -49.37018 29403 ft 402 kts 71°
2026-04-26 13:48 -16.68199 -49.34261 28988 ft 397 kts 71°
2026-04-26 13:48 -16.67352 -49.31537 28586 ft 392 kts 71°
2026-04-26 13:48 -16.66516 -49.28849 28179 ft 388 kts 71°
2026-04-26 13:49 -16.65697 -49.26224 27785 ft 383 kts 71°
2026-04-26 13:49 -16.64880 -49.23597 27395 ft 379 kts 72°
2026-04-26 13:49 -16.63921 -49.21063 27012 ft 374 kts 62°
2026-04-26 13:49 -16.62588 -49.18761 26638 ft 368 kts 55°
2026-04-26 13:50 -16.61156 -49.16569 26268 ft 364 kts 55°
2026-04-26 13:50 -16.59735 -49.14393 25895 ft 362 kts 55°
2026-04-26 13:50 -16.58322 -49.12229 25514 ft 360 kts 55°
2026-04-26 13:50 -16.56920 -49.10075 25125 ft 359 kts 55°
2026-04-26 13:51 -16.55522 -49.07923 24724 ft 358 kts 56°
2026-04-26 13:51 -16.54149 -49.05809 24325 ft 357 kts 56°
2026-04-26 13:51 -16.52760 -49.03672 23923 ft 355 kts 56°
2026-04-26 13:51 -16.51373 -49.01541 23482 ft 355 kts 56°
2026-04-26 13:52 -16.49995 -48.99421 23038 ft 352 kts 56°
2026-04-26 13:52 -16.48629 -48.97313 22633 ft 351 kts 57°
2026-04-26 13:52 -16.47284 -48.95197 22184 ft 349 kts 57°
2026-04-26 13:52 -16.45966 -48.93093 21779 ft 346 kts 57°
2026-04-26 13:53 -16.44662 -48.90999 21364 ft 343 kts 57°
2026-04-26 13:53 -16.43389 -48.88951 20983 ft 340 kts 57°
2026-04-26 13:53 -16.42106 -48.86885 20579 ft 338 kts 57°
2026-04-26 13:53 -16.40829 -48.84834 20172 ft 337 kts 57°
2026-04-26 13:54 -16.39557 -48.82797 19766 ft 335 kts 57°
2026-04-26 13:54 -16.38271 -48.80772 19178 ft 339 kts 56°
2026-04-26 13:54 -16.36894 -48.78740 18541 ft 345 kts 54°
2026-04-26 13:55 -16.34054 -48.74746 17558 ft 339 kts 53°
2026-04-26 13:55 -16.33124 -48.73449 17286 ft 336 kts 53°
2026-04-26 13:55 -16.29922 -48.68967 16352 ft 327 kts 53°
2026-04-26 13:56 -16.28581 -48.67070 15964 ft 324 kts 53°
2026-04-26 13:56 -16.27256 -48.65184 15575 ft 321 kts 53°
2026-04-26 13:56 -16.25944 -48.63314 15199 ft 318 kts 53°
2026-04-26 13:56 -16.24641 -48.61458 14806 ft 317 kts 53°
2026-04-26 13:57 -16.23342 -48.59609 14419 ft 315 kts 53°
2026-04-26 13:57 -16.22047 -48.57772 14038 ft 314 kts 53°
2026-04-26 13:57 -16.20780 -48.55974 13643 ft 311 kts 53°
2026-04-26 13:57 -16.19502 -48.54160 13248 ft 309 kts 53°
2026-04-26 13:58 -16.18235 -48.52363 12876 ft 307 kts 53°
2026-04-26 13:58 -16.16980 -48.50585 12519 ft 304 kts 53°
2026-04-26 13:58 -16.15735 -48.48821 12143 ft 301 kts 53°
2026-04-26 13:58 -16.14500 -48.47073 11774 ft 299 kts 53°
2026-04-26 13:59 -16.13273 -48.45335 11409 ft 297 kts 53°
2026-04-26 13:59 -16.12055 -48.43614 11057 ft 295 kts 53°
2026-04-26 13:59 -16.10865 -48.41928 10701 ft 289 kts 53°
2026-04-26 14:00 -16.07593 -48.37279 9717 ft 247 kts 53°
2026-04-26 14:00 -16.06583 -48.35848 9400 ft 243 kts 53°
2026-04-26 14:00 -16.05927 -48.34921 9197 ft 239 kts 53°
2026-04-26 14:01 -16.04620 -48.33078 8798 ft 234 kts 53°
2026-04-26 14:01 -16.03664 -48.31729 8501 ft 230 kts 53°
2026-04-26 14:01 -16.02726 -48.30403 8112 ft 231 kts 53°
2026-04-26 14:01 -16.01783 -48.29066 7782 ft 228 kts 53°
2026-04-26 14:02 -16.00854 -48.27748 7492 ft 224 kts 54°
2026-04-26 14:02 -15.99938 -48.26453 7221 ft 220 kts 53°
2026-04-26 14:02 -15.99041 -48.25185 6963 ft 215 kts 53°
2026-04-26 14:02 -15.98160 -48.23945 6704 ft 212 kts 53°
2026-04-26 14:03 -15.97290 -48.22718 6445 ft 209 kts 54°
2026-04-26 14:03 -15.96426 -48.21498 6180 ft 210 kts 54°
2026-04-26 14:03 -15.95579 -48.20301 6086 ft 209 kts 53°
2026-04-26 14:03 -15.94716 -48.19082 6015 ft 210 kts 54°
2026-04-26 14:04 -15.93871 -48.17892 5926 ft 201 kts 54°
2026-04-26 14:04 -15.93045 -48.16725 5844 ft 200 kts 53°
2026-04-26 14:04 -15.92218 -48.15562 5771 ft 199 kts 53°
2026-04-26 14:04 -15.91396 -48.14407 5685 ft 199 kts 54°
2026-04-26 14:05 -15.90578 -48.13255 5600 ft 198 kts 54°
2026-04-26 14:05 -15.89765 -48.12100 5530 ft 198 kts 56°
2026-04-26 14:05 -15.89206 -48.10824 5459 ft 197 kts 76°
2026-04-26 14:05 -15.89045 -48.09410 5477 ft 198 kts 86°
2026-04-26 14:06 -15.88957 -48.07986 5488 ft 197 kts 86°
2026-04-26 14:06 -15.88867 -48.06557 5496 ft 198 kts 86°
2026-04-26 14:06 -15.88776 -48.05128 5472 ft 199 kts 86°
2026-04-26 14:06 -15.88686 -48.03700 5302 ft 197 kts 86°
2026-04-26 14:07 -15.88596 -48.02291 5085 ft 190 kts 86°
2026-04-26 14:07 -15.88512 -48.00970 4861 ft 177 kts 86°
2026-04-26 14:07 -15.88433 -47.99727 4644 ft 167 kts 86°
2026-04-26 14:07 -15.88358 -47.98563 4438 ft 157 kts 86°
2026-04-26 14:08 -15.88288 -47.97468 4235 ft 152 kts 87°
2026-04-26 14:08 -15.88219 -47.96383 4036 ft 149 kts 86°
2026-04-26 14:08 -15.88151 -47.95311 3826 ft 148 kts 86°
2026-04-26 14:08 -15.88081 -47.94258 3601 ft 146 kts 86°
2026-04-26 14:09 -15.88017 -47.93238 3489 ft 132 kts 85°
2026-04-26 14:09 -15.87967 -47.92458 3479 ft 83 kts 86°
2026-04-26 14:09 -15.87941 -47.92051 3471 ft 42 kts 86°
2026-04-26 14:09 -15.87880 -47.91809 3466 ft 24 kts 59°
2026-04-26 14:10 -15.87818 -47.91712 3462 ft 18 kts 56°
2026-04-26 14:10 -15.87770 -47.91641 3461 ft 12 kts 54°
2026-04-26 14:10 -15.87718 -47.91562 3460 ft 14 kts 51°
2026-04-26 14:10 -15.87633 -47.91553 3463 ft 13 kts 355°
2026-04-26 14:11 -15.87385 -47.91571 3471 ft 17 kts 356°
2026-04-26 14:11 -15.87310 -47.91610 3471 ft 12 kts 283°
2026-04-26 14:11 -15.87313 -47.91689 3472 ft 10 kts 264°
2026-04-26 14:12 -15.87318 -47.91760 3472 ft 9 kts 266°
2026-04-26 14:12 -15.87323 -47.91824 3472 ft 9 kts 265°
2026-04-26 14:12 -15.87320 -47.91881 3472 ft 7 kts 297°
2026-04-26 14:12 -15.87287 -47.91889 3472 ft 3 kts 356°
2026-04-26 14:13 -15.87273 -47.91890 3472 ft 0 kts 355°